Regional Weather Roundup
Issued by NWS

Home | Current Version | Previous Version | Text Only | Print | Product List | Glossary On
Versions: 1 2 3 4 5 6 7 8 9 10 11 12 13 14 15 16 17 18 19 20 21 22 23 24 25 26 27 28 29 30 31 32 33 34 35 36 37 38 39 40 41 42 43 44 45 46 47 48 49 50
000
ASUS43 KIND 300709
RWRIN

WEATHER ROUNDUP FOR INDIANA
NATIONAL WEATHER SERVICE INDIANAPOLIS IN
300 AM EDT SAT MAY 30 2015

NOTE: "FAIR" INDICATES FEW OR NO CLOUDS BELOW 12,000 FEET WITH NO
SIGNIFICANT WEATHER AND/OR OBSTRUCTIONS TO VISIBILITY.

* - STATION DOES NOT REPORT WEATHER SUCH AS PRECIPITATION OR FOG.

+ - STATION NOT QUALITY CONTROLLED BY THE NATIONAL WEATHER SERVICE.
    USE DATA WITH CAUTION...ESPECIALLY DEWPOINT AND RELATIVE
    HUMIDITY OBSERVATIONS.

INZ001>003-010>013-019-020-300800-
NORTHWEST INDIANA

CITY           SKY/WX    TMP DP  RH WIND       PRES   REMARKS
GARY /AIRPORT/ MOCLDY    72  66  83 SW3       29.95F
KNOX *+        MOCLDY    68  68 100 SW6       29.97S
LA PORTE +     MOCLDY    70  67  89 SW6       29.98S
MICHIGAN CITY+ CLOUDY    68  68 100 S5        29.97S
MONTICELLO +   MOCLDY    71  65  83 SW6       29.98S
RENSSELAER +   CLOUDY    70  64  83 S8        29.98S
VALPARAISO     MOCLDY    69  64  84 SW8       29.97F

$$

LMZ046-743>745-300800-
SOUTHERN LAKE MICHIGAN

STATION/POSITION TIME  TEMP    WIND        PRES    WAVE
                       AIR SEA DIR/SP/G            HT
                 (UTC) (F)     (DEG/KT/KT) (MB)    (FT)
BURNS HARBOR     0700   70     210/ 12/ 16 1014.6S
MICHIGAN CITY    0700   70     180/ 14/ 17   N/A
5NW MICH CITY    0700   63 56  220/ 10/ 10   N/A     1

$$

INZ004-005-014>016-021>024-300800-
NORTH CENTRAL INDIANA

CITY           SKY/WX    TMP DP  RH WIND       PRES   REMARKS
GOSHEN         MOCLDY    73  65  75 SW10      29.97S
LOGANSPORT +   PTCLDY    70  63  78 SW8       29.99F
PERU/GRISSOM   CLEAR     69  65  87 SW7       29.99S
ROCHESTER +    PTCLDY    73  68  83 S9        29.99F
SOUTH BEND     MOCLDY    70  67  90 S8        29.97S

$$

INZ006>009-017-018-025>027-300800-
NORTHEAST INDIANA

CITY           SKY/WX    TMP DP  RH WIND       PRES   REMARKS
ANGOLA *+      CLEAR     72  63  73 SW8       29.98S
AUBURN +       PTCLDY    72  63  73 SW5       30.00
FORT WAYNE     PTCLDY    70  64  81 SW8       30.00S
HUNTINGTON +   CLEAR     70  64  83 S5        30.00S

$$

INZ028-029-035-036-043>045-051>053-300800-
WEST CENTRAL INDIANA

CITY           SKY/WX    TMP DP  RH WIND       PRES   REMARKS
CRAWFORDSVL +  MOCLDY    66  61  84 CALM      30.00S
GREENCASTLE +  PTCLDY    68  63  83 S5        30.02S
LAFAYETTE      MOCLDY    69  64  84 SW3       29.99S
TERRE HAUTE    MOCLDY    69  66  90 SW6       30.01S

$$

INZ030>032-037>040-046>048-054>057-064-065-300800-
CENTRAL INDIANA

CITY           SKY/WX    TMP DP  RH WIND       PRES   REMARKS
CP ATTERBURY + CLEAR     66  63  88 SE3       30.04R
FRANKFORT +    PTCLDY    70  66  87 S3        30.02S
GREENWOOD *+   CLEAR     70  63  78 S6        30.03S
INDIANAPOLIS   PTCLDY    68  64  87 S6        30.00S
-EAGLE CREEK   PTCLDY    69  65  86 CALM      30.01S
KOKOMO *+      CLEAR     72  64  78 SW9       30.00S
MARION +       CLEAR     69  63  80 SW7       30.01S
MT COMFORT *+  CLEAR     70  66  88 S7        30.02S
SHELBYVILLE    CLEAR     72  65  78 S9        30.02S
ZIONSVILLE +   CLEAR     71  64  79 S7        30.02S

$$

INZ033-034-041-042-049-050-058-059-300800-
EAST CENTRAL INDIANA

CITY           SKY/WX    TMP DP  RH WIND       PRES   REMARKS
MUNCIE         CLEAR     71  64  78 SW7       30.01F

$$

INZ060-061-067>069-081>083-085>088-300800-
SOUTHWEST INDIANA

CITY           SKY/WX    TMP DP  RH WIND       PRES   REMARKS
EVANSVILLE     CLEAR     72  67  84 S3        30.03S
HUNTINGBURG *+ PTCLDY    70  66  88 S8        30.04S
WASHINGTON +   PTCLDY    70  66  87 S6        30.02S

$$

INZ062-063-066-070>080-084-089>092-300800-
SOUTH CENTRAL AND SOUTHEAST INDIANA

CITY           SKY/WX    TMP DP  RH WIND       PRES   REMARKS
BLOOMINGTON    CLEAR     70  66  87 SW6       30.03R
MADISON *+     CLEAR     68  64  88 S3        30.08S
NORTH VERNON + CLEAR     70  70 100 S3        30.05S
SEYMOUR +      CLEAR     72  66  83 S7        30.04S

$$



USA.gov is the U.S. government's official web portal to all federal, state and local government web resources and services.